Hourly Data Report for October 04, 2017

All times are specified in Local Standard Time (LST). Add 1 hour to adjust for Daylight Saving Time where and when it is observed.

GIMLI CLIMATE
MANITOBA

50°38'00.000" N
97°03'00.000" W
230.10 m
5031042
71748
PGH

Download Data

Hourly Data (October 2017)
Hourly Data Report for October 4, 2017
Temp Definition
°C
Dew Point Temp Definition
°C
Rel Hum Definition
%
Wind Dir Definition
10's deg

Wind Spd Definition
km/h
Visibility Definition
km
Stn Press Definition
kPa
Hmdx Definition


Wind Chill Definition


Weather Definition


TIME
00:00 4.1 2.9 92 26 8   99.16     LegendNANA
01:00 3.0 1.2 88 25 9   99.19     LegendNANA
02:00 2.5 1.4 93 23 6   99.20     LegendNANA
03:00 4.5 3.7 95 25 9   99.21     LegendNANA
04:00 4.2 3.5 95 25 13   99.21     LegendNANA
05:00 5.6 4.9 95 27 15   99.24     LegendNANA
06:00 6.4 5.7 96 27 13   99.25     LegendNANA
07:00 6.2 4.7 90 26 15   99.23     LegendNANA
08:00 7.2 5.7 90 23 20   99.21     LegendNANA
09:00 8.7 5.0 78 25 24   99.22     LegendNANA
10:00 9.9 3.1 63 24 28   99.16     LegendNANA
11:00 10.7 2.5 57 24 36   99.10     LegendNANA
12:00 11.6 2.1 52 24 35   99.09     LegendNANA
13:00 12.7 1.2 45 26 35   99.03     LegendNANA
14:00 14.8 0.3 37 25 30   98.98     LegendNANA
15:00 13.9 0.0 39 25 23   98.94     LegendNANA
16:00 14.2 -1.5 34 27 21   98.93     LegendNANA
17:00 13.6 -2.6 32 29 19   98.94     LegendNANA
18:00 10.3 -1.7 43 29 8   98.96     LegendNANA
19:00 8.9 -1.3 49 31 10   99.02     LegendNANA
20:00 5.7 -1.4 60 29 8   99.03     LegendNANA
21:00 6.6 -0.7 60 29 9   99.03     LegendNANA
22:00 4.4 -0.7 69 32 7   99.07     LegendNANA
23:00 5.0 0.6 73 33 9   99.07     LegendNANA

Notes on Data Quality.

Legend

  • E = Estimated
  • M = Missing
  • NA = Not Available
  • ‡ = Partner data that is not subject to review by the National Climate Archives
Date modified: